Find N-Star c

NORAD ID: 27461 Int'l Des: 2002-035 Owner: NTTDM Country: J operational
HEOCIRCULAR

Live Position

Loading 3D Globe...

About N-Star c

Description loading...

Upcoming Passes

Passes for default location (London). Set your location on the main map for personalized predictions.

Altitude History

Loading altitude history...

Two-Line Element Set

1 27461U 02035B 26106.09135323 -.00000134 00000-0 00000-0 0 9990
2 27461 10.9274 44.6863 0006476 217.4954 269.3304 0.98952103 86829
Epoch: Apr 16, 2026 • Age: 15 hours

Current Status

Altitude 36179.4 km
Velocity 3.06 km/s
Sub-Earth Point -1.76°S, 68.39°W
Launch Date Jul 5, 2002
Age 23.7 years
Type other

Technical Details

Classification Payload
Mass 1645.00 kg
Dry Mass 800.00 kg
Total Mass 1645.00 kg
Length 3.30 m
Diameter 1.50 m
Span 12.60 m
Shape Box + 2 Pan + Dish
Manufacturer OSCD
Bus Type OSC Star 2
Phase Status In Orbit
Owner/State NTTDM/J

Most Searched